Date,Installs,Update checks
2014-12-31,7,3
2015-01-01,2,4
2015-01-02,4,7
2015-01-03,2,7
2015-01-04,2,10
2015-01-05,2,10
2015-01-06,3,17
2015-01-07,3,14
2015-01-08,5,22
2015-01-09,3,12
2015-01-10,1,15
2015-01-11,3,13
2015-01-12,0,22
2015-01-13,3,12
2015-01-14,3,23
2015-01-15,2,15
2015-01-16,1,19
2015-01-17,0,15
2015-01-18,2,17
2015-01-19,2,15
2015-01-20,1,20
2015-01-21,2,16
2015-01-22,0,26
2015-01-23,3,18
2015-01-24,2,23
2015-01-25,2,18
2015-01-26,2,24
2015-01-27,1,23
2015-01-28,3,28
2015-01-29,2,20
2015-01-30,0,22
2015-01-31,3,20
2015-02-01,3,25
2015-02-02,2,28
2015-02-03,4,28
2015-02-04,2,29
2015-02-05,0,26
2015-02-06,3,25
2015-02-07,0,28
2015-02-08,1,19
2015-02-09,3,37
2015-02-10,3,27
2015-02-11,0,28
2015-02-12,7,27
2015-02-13,1,32
2015-02-14,0,22
2015-02-15,0,35
2015-02-16,0,21
2015-02-17,1,30
2015-02-18,0,26
2015-02-19,0,21
2015-02-20,1,23
2015-02-21,0,20
2015-02-22,2,24
2015-02-23,1,28
2015-02-24,0,24
2015-02-25,1,40
2015-02-26,2,29
2015-02-27,1,40
2015-02-28,3,23
2015-03-01,1,33
2015-03-02,3,30
2015-03-03,2,41
2015-03-04,2,32
2015-03-05,0,42
2015-03-06,2,33
2015-03-07,0,31
2015-03-08,1,31
2015-03-09,2,52
2015-03-10,0,38
2015-03-11,2,47
2015-03-12,1,40
2015-03-13,3,50
2015-03-14,0,33
2015-03-15,1,47
2015-03-16,0,40
2015-03-17,1,51
2015-03-18,2,39
2015-03-19,1,51
2015-03-20,0,40
2015-03-21,0,41
2015-03-22,0,38
2015-03-23,1,53
2015-03-24,3,35
2015-03-25,1,49
2015-03-26,1,47
2015-03-27,1,51
2015-03-28,1,31
2015-03-29,0,43
2015-03-30,2,47
2015-03-31,1,51
2015-04-01,2,54
2015-04-02,2,51
2015-04-03,2,44
2015-04-04,1,47
2015-04-05,3,43
2015-04-06,1,47
2015-04-07,2,52
2015-04-08,0,50
2015-04-09,4,55
2015-04-10,1,52
2015-04-11,1,44
2015-04-12,1,50
2015-04-13,2,55
2015-04-14,1,53
2015-04-15,3,64
2015-04-16,1,53
2015-04-17,0,57
2015-04-18,2,53
2015-04-19,0,47
2015-04-20,2,56
2015-04-21,3,51
2015-04-22,1,55
2015-04-23,1,53
2015-04-24,0,47
2015-04-25,1,45
2015-04-26,0,47
2015-04-27,1,51
2015-04-28,2,47
2015-04-29,1,57
2015-04-30,0,49
2015-05-01,0,39
2015-05-02,3,43
2015-05-03,0,49
2015-05-04,2,57
2015-05-05,0,57
2015-05-06,0,47
2015-05-07,0,44
2015-05-08,0,54
2015-05-09,1,41
2015-05-10,0,48
2015-05-11,1,51
2015-05-12,1,48
2015-05-13,2,54
2015-05-14,0,45
2015-05-15,1,50
2015-05-16,1,45
2015-05-17,0,45
2015-05-18,1,68
2015-05-19,1,34
2015-05-20,2,69
2015-05-21,0,41
2015-05-22,0,58
2015-05-23,1,52
2015-05-24,3,44
2015-05-25,1,60
2015-05-26,1,60
2015-05-27,1,50
2015-05-28,0,9
2015-05-29,1,80
2015-05-30,1,43
2015-05-31,2,50
2015-06-01,0,60
2015-06-02,2,44
2015-06-03,0,59
2015-06-04,1,60
2015-06-05,0,62
2015-06-06,1,54
2015-06-07,3,53
2015-06-08,0,62
2015-06-09,0,48
2015-06-10,0,67
2015-06-11,1,55
2015-06-12,1,60
2015-06-13,6,49
2015-06-14,1,53
2015-06-15,1,44
2015-06-16,2,67
2015-06-17,1,60
2015-06-18,0,56
2015-06-19,1,58
2015-06-20,0,51
2015-06-21,3,56
2015-06-22,0,62
2015-06-23,1,64
2015-06-24,2,62
2015-06-25,0,68
2015-06-26,1,65
2015-06-27,0,49
2015-06-28,0,54
2015-06-29,1,69
2015-06-30,1,57
2015-07-01,0,70
2015-07-02,0,58
2015-07-03,0,60
2015-07-04,1,59
2015-07-05,3,55
2015-07-06,0,74
2015-07-07,0,53
2015-07-08,1,65
2015-07-09,0,51
2015-07-10,1,75
2015-07-11,2,40
2015-07-12,0,58
2015-07-13,0,61
2015-07-14,0,56
2015-07-15,0,54
2015-07-16,0,63
2015-07-17,0,56
2015-07-18,1,52
2015-07-19,1,52
2015-07-20,1,60
2015-07-21,0,55
2015-07-22,1,64
2015-07-23,1,61
2015-07-24,2,61
2015-07-25,2,40
2015-07-26,0,48
2015-07-27,0,75
2015-07-28,3,57
2015-07-29,0,69
2015-07-30,2,62
2015-07-31,2,66
2015-08-01,1,53
2015-08-02,1,55
2015-08-03,1,74
2015-08-04,1,60
2015-08-05,3,72
2015-08-06,4,60
2015-08-07,2,74
2015-08-08,1,50
2015-08-09,1,54
2015-08-10,4,74
2015-08-11,2,73
2015-08-12,2,65
2015-08-13,3,72
2015-08-14,2,68
2015-08-15,0,64
2015-08-16,0,58
2015-08-17,2,71
2015-08-18,1,64
2015-08-19,3,71
2015-08-20,1,67
2015-08-21,2,73
2015-08-22,5,62
2015-08-23,2,63
2015-08-24,3,72
2015-08-25,0,74
2015-08-26,1,66
2015-08-27,3,65
2015-08-28,1,71
2015-08-29,3,63
2015-08-30,1,60
2015-08-31,5,84
2015-09-01,1,66
2015-09-02,3,80
2015-09-03,1,65
2015-09-04,3,76
2015-09-05,2,59
2015-09-06,0,79
2015-09-07,2,71
2015-09-08,4,72
2015-09-09,2,78
2015-09-10,0,68
2015-09-11,1,70
2015-09-12,0,73
2015-09-13,2,61
2015-09-14,1,85
2015-09-15,2,66
2015-09-16,1,79
2015-09-17,3,70
2015-09-18,1,79
2015-09-19,1,61
2015-09-20,0,70
2015-09-21,1,80
2015-09-22,1,83
2015-09-23,1,81
2015-09-24,1,73
2015-09-25,1,73
2015-09-26,0,70
2015-09-27,2,59
2015-09-28,1,82
2015-09-29,1,62
2015-09-30,1,83
2015-10-01,0,62
2015-10-02,0,61
2015-10-03,0,61
2015-10-04,1,73
2015-10-05,1,70
2015-10-06,4,77
2015-10-07,0,75
2015-10-08,1,86
2015-10-09,1,70
2015-10-10,1,82
2015-10-11,0,63
2015-10-12,3,96
2015-10-13,0,68
2015-10-14,0,84
2015-10-15,2,78
2015-10-16,0,89
2015-10-17,2,66
2015-10-18,2,78
2015-10-19,1,93
2015-10-20,1,75
2015-10-21,5,107
2015-10-22,1,86
2015-10-23,2,91
2015-10-24,3,73
2015-10-25,1,67
2015-10-26,1,91
2015-10-27,0,74
2015-10-28,4,89
2015-10-29,2,93
2015-10-30,1,92
2015-10-31,1,78
2015-11-01,0,91
2015-11-02,1,86
2015-11-03,4,90
2015-11-04,4,82
2015-11-05,0,93
2015-11-06,1,74
2015-11-07,2,80
2015-11-08,1,83
2015-11-09,3,96
2015-11-10,1,78
2015-11-11,0,88
2015-11-12,1,82
2015-11-13,1,87
2015-11-14,3,74
2015-11-15,1,78
2015-11-16,2,110
2015-11-17,1,77
2015-11-18,0,90
2015-11-19,1,83
2015-11-20,0,95
2015-11-21,1,81
2015-11-22,1,84
2015-11-23,3,91
2015-11-24,2,80
2015-11-25,1,80
2015-11-26,2,65
2015-11-27,0,85
2015-11-28,1,78
2015-11-29,0,68
2015-11-30,1,89
2015-12-01,2,77
2015-12-02,0,90
2015-12-03,3,80
2015-12-04,3,79
2015-12-05,1,81
2015-12-06,1,76
2015-12-07,1,91
2015-12-08,3,76
2015-12-09,3,80
2015-12-10,0,86
2015-12-11,2,75
2015-12-12,0,63
2015-12-13,0,76
2015-12-14,1,82
2015-12-15,0,82
2015-12-16,2,83
2015-12-17,3,81
2015-12-18,1,86
2015-12-19,0,78
2015-12-20,0,67
2015-12-21,1,103
2015-12-22,1,82
2015-12-23,3,83
2015-12-24,0,74
2015-12-25,1,72
2015-12-26,1,65
2015-12-27,0,63
2015-12-28,0,85
2015-12-29,1,69
2015-12-30,1,86
2015-12-31,0,73
2016-01-01,2,57
2016-01-02,0,66
2016-01-03,0,70
2016-01-04,0,89
2016-01-05,0,89
2016-01-06,0,73
2016-01-07,0,86
2016-01-08,3,83
2016-01-09,2,74
2016-01-10,2,76
2016-01-11,2,83
2016-01-12,0,77
2016-01-13,2,86
2016-01-14,1,80
2016-01-15,2,86
2016-01-16,0,59
2016-01-17,1,75
2016-01-18,1,81
2016-01-19,0,76
2016-01-20,1,71
2016-01-21,1,77
2016-01-22,2,80
2016-01-23,1,73
2016-01-24,0,65
2016-01-25,2,90
2016-01-26,1,73
2016-01-27,0,92
2016-01-28,1,74
2016-01-29,0,77
2016-01-30,0,69
2016-01-31,1,60
2016-02-01,0,87
2016-02-02,0,72
2016-02-03,0,69
2016-02-04,1,73
2016-02-05,1,70
2016-02-06,0,54
2016-02-07,3,48
2016-02-08,2,56
2016-02-09,0,45
2016-02-10,4,65
2016-02-11,0,55
2016-02-12,0,59
2016-02-13,1,71
2016-02-14,0,72
2016-02-15,0,87
2016-02-16,1,92
2016-02-17,0,76
2016-02-18,1,86
2016-02-19,1,70
2016-02-20,3,74
2016-02-21,0,74
2016-02-22,0,86
2016-02-23,1,65
2016-02-24,0,83
2016-02-25,1,86
2016-02-26,0,83
2016-02-27,1,64
2016-02-28,2,65
2016-02-29,1,80
2016-03-01,3,83
2016-03-02,0,84
2016-03-03,0,85
2016-03-04,2,77
2016-03-05,0,68
2016-03-06,1,63
2016-03-07,2,94
2016-03-08,0,71
2016-03-09,1,96
2016-03-10,0,78
2016-03-11,0,86
2016-03-12,2,66
2016-03-13,1,82
2016-03-14,5,93
2016-03-15,0,69
2016-03-16,1,90
2016-03-17,1,70
2016-03-18,4,92
2016-03-19,8,66
2016-03-20,1,77
2016-03-21,2,77
2016-03-22,2,86
2016-03-23,2,85
2016-03-24,3,80
2016-03-25,1,86
2016-03-26,0,75
2016-03-27,1,67
2016-03-28,3,79
2016-03-29,3,85
2016-03-30,1,83
2016-03-31,2,81
2016-04-01,2,90
2016-04-02,2,72
2016-04-03,1,52
2016-04-04,1,80
2016-04-05,0,76
2016-04-06,0,88
2016-04-07,1,91
2016-04-08,1,88
2016-04-09,1,62
2016-04-10,1,75
2016-04-11,4,87
2016-04-12,0,85
2016-04-13,2,96
2016-04-14,4,76
2016-04-15,0,82
2016-04-16,2,82
2016-04-17,1,70
2016-04-18,3,90
2016-04-19,0,77
2016-04-20,0,86
2016-04-21,1,83
2016-04-22,2,69
2016-04-23,3,84
2016-04-24,3,81
2016-04-25,1,97
2016-04-26,1,78
2016-04-27,2,94
2016-04-28,4,79
2016-04-29,2,84
2016-04-30,0,72
2016-05-01,1,84
2016-05-02,1,78
2016-05-03,2,106
2016-05-04,1,83
2016-05-05,2,97
2016-05-06,2,89
2016-05-07,1,97
2016-05-08,1,99
2016-05-09,0,117
2016-05-10,0,83
2016-05-11,3,113
2016-05-12,5,83
2016-05-13,1,110
2016-05-14,0,90
2016-05-15,0,78
2016-05-16,0,111
2016-05-17,1,90
2016-05-18,0,101
2016-05-19,1,98
2016-05-20,1,95
2016-05-21,1,86
2016-05-22,3,96
2016-05-23,2,108
2016-05-24,0,106
2016-05-25,1,102
2016-05-26,1,111
2016-05-27,2,113
2016-05-28,4,103
2016-05-29,0,92
2016-05-30,0,147
2016-05-31,1,115
2016-06-01,3,137
2016-06-02,0,112
2016-06-03,2,134
2016-06-04,4,104
2016-06-05,5,114
2016-06-06,3,142
2016-06-07,1,123
2016-06-08,0,145
2016-06-09,1,98
2016-06-10,1,123
2016-06-11,1,125
2016-06-12,1,131
2016-06-13,1,133
2016-06-14,1,127
2016-06-15,1,127
2016-06-16,0,122
2016-06-17,1,118
2016-06-18,0,99
2016-06-19,0,107
2016-06-20,0,133
2016-06-21,0,117
2016-06-22,3,124
2016-06-23,2,123
2016-06-24,3,134
2016-06-25,0,115
2016-06-26,1,108
2016-06-27,1,160
2016-06-28,0,107
2016-06-29,2,137
2016-06-30,2,126
2016-07-01,2,121
2016-07-02,1,114
2016-07-03,1,114
2016-07-04,1,129
2016-07-05,0,119
2016-07-06,1,135
2016-07-07,2,104
2016-07-08,0,130
2016-07-09,2,114
2016-07-10,2,104
2016-07-11,1,149
2016-07-12,2,125
2016-07-13,1,141
2016-07-14,0,108
2016-07-15,0,132
2016-07-16,0,100
2016-07-17,0,107
2016-07-18,0,138
2016-07-19,0,117
2016-07-20,0,131
2016-07-21,0,127
2016-07-22,3,123
2016-07-23,0,112
2016-07-24,1,111
2016-07-25,0,137
2016-07-26,3,112
2016-07-27,3,138
2016-07-28,2,139
2016-07-29,2,140
2016-07-30,0,97
2016-07-31,0,135
2016-08-01,0,141
2016-08-02,1,135
2016-08-03,1,131
2016-08-04,4,134
2016-08-05,0,151
2016-08-06,1,109
2016-08-07,2,116
2016-08-08,2,144
2016-08-09,0,133
2016-08-10,1,130
2016-08-11,1,120
2016-08-12,1,137
2016-08-13,1,104
2016-08-14,1,104
2016-08-15,0,139
2016-08-16,2,120
2016-08-17,3,133
2016-08-18,3,125
2016-08-19,0,147
2016-08-20,0,108
2016-08-21,0,110
2016-08-22,5,149
2016-08-23,0,123
2016-08-24,0,145
2016-08-25,1,113
2016-08-26,1,146
2016-08-27,1,107
2016-08-28,1,119
2016-08-29,2,154
2016-08-30,2,126
2016-08-31,2,152
2016-09-01,0,171
2016-09-02,0,161
2016-09-03,0,116
2016-09-04,3,108
2016-09-05,2,160
2016-09-06,0,133
2016-09-07,1,134
2016-09-08,2,126
2016-09-09,2,151
2016-09-10,1,110
2016-09-11,0,119
2016-09-12,0,146
2016-09-13,3,143
2016-09-14,2,130
2016-09-15,1,119
2016-09-16,1,98
2016-09-17,0,133
2016-09-18,0,135
2016-09-19,1,141
2016-09-20,2,155
2016-09-21,1,134
2016-09-22,2,138
2016-09-23,5,130
2016-09-24,1,123
2016-09-25,0,119
2016-09-26,1,164
2016-09-27,4,133
2016-09-28,2,150
2016-09-29,0,129
2016-09-30,1,134
2016-10-01,1,115
2016-10-02,0,103
2016-10-03,1,112
2016-10-04,2,99
2016-10-05,1,118
2016-10-06,3,115
2016-10-07,4,135
2016-10-08,1,144
2016-10-09,1,127
2016-10-10,3,158
2016-10-11,1,141
2016-10-12,1,149
2016-10-13,1,149
2016-10-14,2,146
2016-10-15,4,131
2016-10-16,2,126
2016-10-17,1,146
2016-10-18,1,141
2016-10-19,2,134
2016-10-20,0,143
2016-10-21,1,148
2016-10-22,0,120
2016-10-23,0,126
2016-10-24,5,148
2016-10-25,1,131
2016-10-26,0,152
2016-10-27,0,133
2016-10-28,4,142
2016-10-29,2,119
2016-10-30,0,133
2016-10-31,0,133
2016-11-01,2,126
2016-11-02,2,125
2016-11-03,0,135
2016-11-04,1,135
2016-11-05,1,107
2016-11-06,1,111
2016-11-07,0,154
2016-11-08,1,118
2016-11-09,4,146
2016-11-10,1,118
2016-11-11,0,130
2016-11-12,0,112
2016-11-13,0,139
2016-11-14,0,148
2016-11-15,1,130
2016-11-16,1,145
2016-11-17,2,149
2016-11-18,1,165
2016-11-19,3,127
2016-11-20,0,142
2016-11-21,0,157
2016-11-22,0,144
2016-11-23,1,148
2016-11-24,2,119
2016-11-25,2,144
2016-11-26,1,120
2016-11-27,2,123
2016-11-28,1,158
2016-11-29,2,126
2016-11-30,0,156
2016-12-01,1,112
2016-12-02,2,144
2016-12-03,2,100
2016-12-04,1,119
2016-12-05,5,146
2016-12-06,2,142
2016-12-07,4,130
2016-12-08,2,148
2016-12-09,3,138
2016-12-10,0,131
2016-12-11,3,124
2016-12-12,1,161
2016-12-13,1,124
2016-12-14,3,172
2016-12-15,1,124
2016-12-16,2,173
2016-12-17,3,113
2016-12-18,1,155
2016-12-19,1,166
2016-12-20,0,147
2016-12-21,0,153
2016-12-22,2,139
2016-12-23,1,130
2016-12-24,1,137
2016-12-25,2,136
2016-12-26,1,162
2016-12-27,3,140
2016-12-28,0,150
2016-12-29,0,122
2016-12-30,1,136
2016-12-31,1,114
2017-01-01,0,114
2017-01-02,2,120
2017-01-03,0,162
2017-01-04,0,125
2017-01-05,1,143
2017-01-06,0,130
2017-01-07,0,128
2017-01-08,0,98
2017-01-09,1,145
2017-01-10,0,139
2017-01-11,2,149
2017-01-12,2,128
2017-01-13,2,143
2017-01-14,0,127
2017-01-15,2,114
2017-01-16,1,163
2017-01-17,2,131
2017-01-18,2,152
2017-01-19,1,114
2017-01-20,2,130
2017-01-21,4,103
2017-01-22,4,137
2017-01-23,1,123
2017-01-24,1,113
2017-01-25,2,127
2017-01-26,1,117
2017-01-27,1,104
2017-01-28,3,108
2017-01-29,0,92
2017-01-30,1,106
2017-01-31,2,103
2017-02-01,3,111
2017-02-02,1,115
2017-02-03,0,116
2017-02-04,2,119
2017-02-05,0,117
2017-02-06,1,149
2017-02-07,2,132
2017-02-08,1,143
2017-02-09,1,131
2017-02-10,0,145
2017-02-11,3,123
2017-02-12,1,116
2017-02-13,2,149
2017-02-14,3,136
2017-02-15,1,143
2017-02-16,1,143
2017-02-17,1,153
2017-02-18,0,133
2017-02-19,2,135
2017-02-20,3,150
2017-02-21,0,158
2017-02-22,3,155
2017-02-23,7,138
2017-02-24,2,173
2017-02-25,0,118
2017-02-26,1,147
2017-02-27,4,152
2017-02-28,2,148
2017-03-01,3,149
2017-03-02,2,150
2017-03-03,2,162
2017-03-04,1,139
2017-03-05,0,134
2017-03-06,6,159
2017-03-07,1,136
2017-03-08,1,161
2017-03-09,3,124
2017-03-10,0,160
2017-03-11,4,135
2017-03-12,1,135
2017-03-13,2,155
2017-03-14,1,141
2017-03-15,3,152
2017-03-16,0,141
2017-03-17,2,150
2017-03-18,3,138
2017-03-19,1,142
2017-03-20,1,163
2017-03-21,3,134
2017-03-22,3,161
2017-03-23,1,137
2017-03-24,2,147
2017-03-25,0,139
2017-03-26,1,133
2017-03-27,2,153
2017-03-28,2,130
2017-03-29,0,141
2017-03-30,2,143
2017-03-31,2,150
2017-04-01,2,148
2017-04-02,0,122
2017-04-03,2,130
2017-04-04,0,127
2017-04-05,0,183
2017-04-06,2,132
2017-04-07,3,163
2017-04-08,2,146
2017-04-09,2,141
2017-04-10,2,158
2017-04-11,1,173
2017-04-12,2,168
2017-04-13,1,161
2017-04-14,2,161
2017-04-15,1,162
2017-04-16,0,151
2017-04-17,2,191
2017-04-18,2,155
2017-04-19,2,181
2017-04-20,0,172
2017-04-21,3,191
2017-04-22,2,4
2017-04-23,0,233
2017-04-24,1,155
2017-04-25,1,202
2017-04-26,1,167
2017-04-27,0,199
2017-04-28,3,154
2017-04-29,3,167
2017-04-30,2,137
2017-05-01,2,195
2017-05-02,1,191
2017-05-03,3,178
2017-05-04,0,190
2017-05-05,2,187
2017-05-06,3,175
2017-05-07,2,187
2017-05-08,2,193
2017-05-09,2,184
2017-05-10,3,169
2017-05-11,1,206
2017-05-12,2,188
2017-05-13,1,193
2017-05-14,3,160
2017-05-15,5,209
2017-05-16,2,178
2017-05-17,1,212
2017-05-18,4,167
2017-05-19,1,215
2017-05-20,1,178
2017-05-21,3,183
2017-05-22,2,203
2017-05-23,3,186
2017-05-24,2,217
2017-05-25,1,162
2017-05-26,0,191
2017-05-27,1,187
2017-05-28,4,152
2017-05-29,2,170
2017-05-30,2,161
2017-05-31,2,211
2017-06-01,2,175
2017-06-02,0,212
2017-06-03,1,166
2017-06-04,0,179
2017-06-05,0,188
2017-06-06,0,192
2017-06-07,0,205
2017-06-08,1,181
2017-06-09,1,193
2017-06-10,2,160
2017-06-11,2,168
2017-06-12,2,194
2017-06-13,1,182
2017-06-14,2,195
2017-06-15,0,191
2017-06-16,2,200
2017-06-17,2,200
2017-06-18,1,183
2017-06-19,1,193
2017-06-20,2,183
2017-06-21,1,200
2017-06-22,1,174
2017-06-23,1,190
2017-06-24,0,186
2017-06-25,4,198
2017-06-26,0,216
2017-06-27,0,179
2017-06-28,2,195
2017-06-29,1,178
2017-06-30,3,188
2017-07-01,1,166
2017-07-02,3,164
2017-07-03,2,186
2017-07-04,2,175
2017-07-05,1,193
2017-07-06,0,192
2017-07-07,2,172
2017-07-08,0,182
2017-07-09,1,180
2017-07-10,0,206
2017-07-11,2,188
2017-07-12,2,206
2017-07-13,3,191
2017-07-14,0,190
2017-07-15,2,169
2017-07-16,1,191
2017-07-17,1,207
2017-07-18,2,184
2017-07-19,1,199
2017-07-20,1,180
2017-07-21,0,229
2017-07-22,0,155
2017-07-23,2,168
2017-07-24,0,189
2017-07-25,2,193
2017-07-26,0,159
2017-07-27,0,203
2017-07-28,2,197
2017-07-29,1,171
2017-07-30,5,167
2017-07-31,0,195
2017-08-01,0,188
2017-08-02,1,180
2017-08-03,0,177
2017-08-04,2,185
2017-08-05,2,159
2017-08-06,1,167
2017-08-07,4,202
2017-08-08,4,189
2017-08-09,2,181
2017-08-10,1,174
2017-08-11,1,193
2017-08-12,0,165
2017-08-13,3,163
2017-08-14,0,185
2017-08-15,3,175
2017-08-16,1,187
2017-08-17,0,172
2017-08-18,1,169
2017-08-19,2,176
2017-08-20,1,155
2017-08-21,3,184
2017-08-22,3,170
2017-08-23,2,141
2017-08-24,2,176
2017-08-25,1,184
2017-08-26,2,179
2017-08-27,2,154
2017-08-28,1,188
2017-08-29,3,181
2017-08-30,1,164
2017-08-31,2,169
2017-09-01,2,181
2017-09-02,0,152
2017-09-03,1,161
2017-09-04,2,203
2017-09-05,0,164
2017-09-06,1,126
2017-09-07,0,185
2017-09-08,0,177
2017-09-09,2,164
2017-09-10,2,160
2017-09-11,0,164
2017-09-12,2,183
2017-09-13,1,121
2017-09-14,0,191
2017-09-15,2,190
2017-09-16,2,157
2017-09-17,1,144
2017-09-18,2,184
2017-09-19,0,165
2017-09-20,0,165
2017-09-21,1,172
2017-09-22,0,181
2017-09-23,1,165
2017-09-24,1,173
2017-09-25,2,213
2017-09-26,0,186
2017-09-27,0,190
2017-09-28,4,197
2017-09-29,2,196
2017-09-30,14,203
2017-10-01,7,182
2017-10-02,3,159
2017-10-03,1,188
2017-10-04,7,174
2017-10-05,3,176
2017-10-06,0,172
2017-10-07,3,190
2017-10-08,3,187
2017-10-09,2,239
2017-10-10,1,226
2017-10-11,1,214
2017-10-12,2,198
2017-10-13,2,216
2017-10-14,4,194
2017-10-15,3,202
2017-10-16,2,239
2017-10-17,2,233
2017-10-18,22,218
2017-10-19,6,220
2017-10-20,7,227
2017-10-21,6,203
2017-10-22,12,203
2017-10-23,7,242
2017-10-24,3,242
2017-10-25,7,214
2017-10-26,6,218
2017-10-27,4,219
2017-10-28,5,191
2017-10-29,6,207
2017-10-30,4,235
2017-10-31,4,207
2017-11-01,6,215
2017-11-02,4,227
2017-11-03,2,215
2017-11-04,2,185
2017-11-05,4,195
2017-11-06,1,115
2017-11-07,2,249
2017-11-08,0,209
2017-11-09,5,211
2017-11-10,1,217
2017-11-11,2,210
2017-11-12,1,199
2017-11-13,7,233
2017-11-14,6,218
2017-11-15,24,213
2017-11-16,37,221
2017-11-17,15,221
2017-11-18,27,180
2017-11-19,33,205
2017-11-20,19,220
2017-11-21,25,202
2017-11-22,10,216
2017-11-23,15,203
2017-11-24,22,235
2017-11-25,14,196
2017-11-26,8,239
2017-11-27,7,241
2017-11-28,8,237
2017-11-29,7,264
2017-11-30,6,253
2017-12-01,6,266
2017-12-02,1,208
2017-12-03,4,219
2017-12-04,4,283
2017-12-05,1,224
2017-12-06,7,250
2017-12-07,4,240
2017-12-08,4,251
2017-12-09,2,206
2017-12-10,1,214
2017-12-11,4,258
2017-12-12,4,232
2017-12-13,2,225
2017-12-14,2,221
2017-12-15,3,229
2017-12-16,1,197
2017-12-17,2,205
2017-12-18,3,240
2017-12-19,1,216
2017-12-20,2,238
2017-12-21,1,229
2017-12-22,0,258
2017-12-23,3,199
2017-12-24,2,201
2017-12-25,2,235
2017-12-26,5,235
2017-12-27,6,203
2017-12-28,1,244
2017-12-29,1,218
2017-12-30,3,187
2017-12-31,3,184
2018-01-01,0,172
2018-01-02,0,232
2018-01-03,1,236
2018-01-04,2,204
2018-01-05,2,237
2018-01-06,3,196
2018-01-07,2,210
2018-01-08,2,255
2018-01-09,1,214
2018-01-10,0,234
2018-01-11,3,233
2018-01-12,4,245
2018-01-13,2,228
2018-01-14,1,201
2018-01-15,3,224
2018-01-16,1,217
2018-01-17,0,238
2018-01-18,5,219
2018-01-19,3,236
2018-01-20,0,197
2018-01-21,0,217
2018-01-22,1,239
2018-01-23,2,222
2018-01-24,1,246
2018-01-25,0,204
2018-01-26,0,224
2018-01-27,0,196
2018-01-28,0,186
2018-01-29,1,228
2018-01-30,2,224
2018-01-31,1,225
2018-02-01,1,201
2018-02-02,1,224
2018-02-03,1,181
2018-02-04,0,176
2018-02-05,2,240
2018-02-06,4,208
2018-02-07,2,219
2018-02-08,2,187
2018-02-09,2,226
2018-02-10,0,173
2018-02-11,3,197
2018-02-12,1,185
2018-02-13,1,177
2018-02-14,1,155
2018-02-15,1,161
2018-02-16,0,171
2018-02-17,2,153
2018-02-18,0,159
2018-02-19,2,151
2018-02-20,2,146
2018-02-21,0,157
2018-02-22,0,167
2018-02-23,1,188
2018-02-24,2,181
2018-02-25,1,139
2018-02-26,2,215
2018-02-27,0,206
2018-02-28,1,179
2018-03-01,1,195
2018-03-02,0,185
2018-03-03,3,170
2018-03-04,0,154
2018-03-05,0,187
2018-03-06,5,195
2018-03-07,1,180
2018-03-08,2,201
2018-03-09,1,195
2018-03-10,1,152
2018-03-11,1,172
2018-03-12,1,199
2018-03-13,2,217
2018-03-14,4,189
2018-03-15,3,203
2018-03-16,5,203
2018-03-17,0,176
2018-03-18,2,172
2018-03-19,1,222
2018-03-20,2,191
2018-03-21,2,200
2018-03-22,4,209
2018-03-23,4,189
2018-03-24,5,196
2018-03-25,3,182
2018-03-26,2,198
2018-03-27,3,200
2018-03-28,0,209
2018-03-29,1,207
2018-03-30,3,208
2018-03-31,3,170
2018-04-01,0,164
2018-04-02,2,203
2018-04-03,3,195
2018-04-04,2,192
2018-04-05,1,178
2018-04-06,2,163
2018-04-07,2,172
2018-04-08,2,187
2018-04-09,2,206
2018-04-10,1,204
2018-04-11,0,199
2018-04-12,2,200
2018-04-13,2,191
2018-04-14,0,170
2018-04-15,1,184
2018-04-16,1,210
2018-04-17,0,183
2018-04-18,2,190
2018-04-19,1,195
2018-04-20,2,190
2018-04-21,1,161
2018-04-22,0,163
2018-04-23,2,196
2018-04-24,4,185
2018-04-25,2,188
2018-04-26,1,195
2018-04-27,2,182
2018-04-28,1,184
2018-04-29,1,148
2018-04-30,1,157
2018-05-01,2,157
2018-05-02,2,191
2018-05-03,0,179
2018-05-04,2,174
2018-05-05,0,171
2018-05-06,0,171
2018-05-07,1,180
2018-05-08,5,192
2018-05-09,2,192
2018-05-10,1,186
2018-05-11,0,193
2018-05-12,3,170
2018-05-13,1,167
2018-05-14,0,181
2018-05-15,0,193
2018-05-16,2,204
2018-05-17,0,194
2018-05-18,1,172
2018-05-19,1,125
2018-05-20,1,165
2018-05-21,0,205
2018-05-22,1,188
2018-05-23,3,170
2018-05-24,1,202
2018-05-25,3,213
2018-05-26,1,165
2018-05-27,1,175
2018-05-28,0,196
2018-05-29,2,200
2018-05-30,1,197
2018-05-31,3,198
2018-06-01,1,194
2018-06-02,3,146
2018-06-03,2,146
2018-06-04,3,188
2018-06-05,2,171
2018-06-06,3,181
2018-06-07,3,168
2018-06-08,1,175
2018-06-09,1,158
2018-06-10,2,163
2018-06-11,5,183
2018-06-12,1,190
2018-06-13,1,183
2018-06-14,1,184
2018-06-15,0,201
2018-06-16,0,164
2018-06-17,4,176
2018-06-18,3,182
2018-06-19,1,217
2018-06-20,3,98
2018-06-21,8,132
2018-06-22,3,211
2018-06-23,2,177
2018-06-24,1,170
2018-06-25,2,197
2018-06-26,1,210
2018-06-27,4,205
2018-06-28,2,210
2018-06-29,3,198
2018-06-30,0,180
2018-07-01,1,166
2018-07-02,0,218
2018-07-03,0,185
2018-07-04,1,206
2018-07-05,2,198
2018-07-06,1,191
2018-07-07,5,188
2018-07-08,1,182
2018-07-09,1,217
2018-07-10,1,197
2018-07-11,0,206
2018-07-12,1,185
2018-07-13,1,196
2018-07-14,0,197
2018-07-15,2,194
2018-07-16,2,194
2018-07-17,0,225
2018-07-18,2,206
2018-07-19,5,222
2018-07-20,1,222
2018-07-21,1,187
2018-07-22,10,183
2018-07-23,3,219
2018-07-24,1,228
2018-07-25,2,234
2018-07-26,4,226
2018-07-27,3,229
2018-07-28,1,200
2018-07-29,4,193
2018-07-30,4,233
2018-07-31,1,228
2018-08-01,3,234
2018-08-02,2,206
2018-08-03,2,236
2018-08-04,2,199
2018-08-05,2,193
2018-08-06,1,238
2018-08-07,5,215
2018-08-08,2,218
2018-08-09,0,209
2018-08-10,0,227
2018-08-11,0,186
2018-08-12,0,199
2018-08-13,2,221
2018-08-14,1,209
2018-08-15,2,192
2018-08-16,1,212
2018-08-17,0,219
2018-08-18,1,187
2018-08-19,1,176
2018-08-20,2,238
2018-08-21,3,234
2018-08-22,3,205
2018-08-23,0,217
2018-08-24,2,224
2018-08-25,1,192
2018-08-26,0,202
2018-08-27,3,229
2018-08-28,0,229
2018-08-29,1,235
2018-08-30,3,229
2018-08-31,0,222
2018-09-01,2,188
2018-09-02,0,192
2018-09-03,3,240
2018-09-04,1,241
2018-09-05,0,245
2018-09-06,1,216
2018-09-07,1,236
2018-09-08,1,208
2018-09-09,1,211
2018-09-10,0,252
2018-09-11,1,230
2018-09-12,0,243
2018-09-13,2,223
2018-09-14,1,241
2018-09-15,4,207
2018-09-16,3,222
2018-09-17,2,239
2018-09-18,3,258
2018-09-19,0,234
2018-09-20,2,253
2018-09-21,3,224
2018-09-22,4,195
2018-09-23,4,192
2018-09-24,2,192
2018-09-25,3,262
2018-09-26,1,235
2018-09-27,4,242
2018-09-28,1,229
2018-09-29,2,232
2018-09-30,4,217
2018-10-01,0,183
2018-10-02,3,179
2018-10-03,2,190
2018-10-04,1,176
2018-10-05,0,193
2018-10-06,1,181
2018-10-07,4,196
2018-10-08,3,245
2018-10-09,3,236
2018-10-10,5,229
2018-10-11,2,245
2018-10-12,4,227
2018-10-13,1,195
2018-10-14,2,188
2018-10-15,4,252
2018-10-16,4,231
2018-10-17,1,239
2018-10-18,0,247
2018-10-19,1,214
2018-10-20,1,192
2018-10-21,1,207
2018-10-22,1,227
2018-10-23,2,222
2018-10-24,2,247
2018-10-25,1,238
2018-10-26,3,237
2018-10-27,2,206
2018-10-28,1,204
2018-10-29,1,237
2018-10-30,1,232
2018-10-31,0,229
2018-11-01,2,212
2018-11-02,2,247
2018-11-03,1,208
2018-11-04,3,216
2018-11-05,0,253
2018-11-06,1,228
2018-11-07,3,225
2018-11-08,4,251
2018-11-09,2,217
2018-11-10,1,191
2018-11-11,3,216
2018-11-12,3,246
2018-11-13,3,240
2018-11-14,3,232
2018-11-15,1,241
2018-11-16,2,245
2018-11-17,0,224
2018-11-18,5,197
2018-11-19,2,276
2018-11-20,2,261
2018-11-21,3,239
2018-11-22,1,240
2018-11-23,1,220
2018-11-24,2,244
2018-11-25,1,204
2018-11-26,0,262
2018-11-27,3,253
2018-11-28,2,233
2018-11-29,1,247
2018-11-30,1,230
2018-12-01,0,208
2018-12-02,2,219
2018-12-03,2,247
2018-12-04,1,230
2018-12-05,0,251
2018-12-06,0,242
2018-12-07,0,268
2018-12-08,2,214